Time,TemperatureF,DewpointF,PressureIn,WindDirection,WindDirectionDegrees,WindSpeedMPH,WindSpeedGustMPH,Humidity,HourlyPrecipIn,Conditions,Clouds,dailyrainin,SoftwareType,DateUTC
2013-02-23 00:00:00,42.8,41.2,29.91,ESE,105,0.0,2.0,94,0.00,,,0.71,HomebrewedOnLinux,2013-02-23 05:00:00,
2013-02-23 00:05:00,43.0,41.4,29.91,East,96,1.0,2.0,94,0.00,,,0.00,HomebrewedOnLinux,2013-02-23 05:05:00,
2013-02-23 00:10:00,43.0,41.4,29.91,ESE,110,2.0,3.0,94,0.00,,,0.00,HomebrewedOnLinux,2013-02-23 05:10:00,
2013-02-23 00:15:00,43.0,41.4,29.88,ESE,107,1.0,2.0,94,0.00,,,0.00,HomebrewedOnLinux,2013-02-23 05:15:00,
2013-02-23 00:20:00,42.8,41.2,29.88,East,87,1.0,2.0,94,0.00,,,0.00,HomebrewedOnLinux,2013-02-23 05:20:00,
2013-02-23 00:25:00,43.0,41.4,29.88,ESE,103,2.0,4.0,94,0.04,,,0.04,HomebrewedOnLinux,2013-02-23 05:25:00,
2013-02-23 00:35:00,42.8,41.2,29.88,East,87,2.0,3.0,94,0.04,,,0.04,HomebrewedOnLinux,2013-02-23 05:35:00,
2013-02-23 00:40:00,42.8,41.1,29.88,East,82,2.0,3.0,94,0.04,,,0.04,HomebrewedOnLinux,2013-02-23 05:40:00,
2013-02-23 00:45:00,42.8,41.2,29.88,ESE,113,2.0,3.0,94,0.04,,,0.04,HomebrewedOnLinux,2013-02-23 05:45:00,
2013-02-23 00:50:00,42.8,41.2,29.88,East,81,0.0,2.0,94,0.04,,,0.04,HomebrewedOnLinux,2013-02-23 05:50:00,
2013-02-23 01:00:00,42.6,41.0,29.85,ENE,72,2.0,5.0,94,0.04,,,0.04,HomebrewedOnLinux,2013-02-23 06:00:00,
2013-02-23 01:10:00,42.4,40.8,29.85,East,85,2.0,4.0,94,0.04,,,0.04,HomebrewedOnLinux,2013-02-23 06:10:00,
2013-02-23 01:15:00,42.4,40.8,29.85,ENE,75,1.0,3.0,94,0.04,,,0.04,HomebrewedOnLinux,2013-02-23 06:15:00,
2013-02-23 01:20:00,42.4,40.8,29.85,East,95,2.0,3.0,94,0.04,,,0.04,HomebrewedOnLinux,2013-02-23 06:20:00,
2013-02-23 01:25:00,42.4,40.8,29.85,ESE,112,1.0,4.0,94,0.00,,,0.04,HomebrewedOnLinux,2013-02-23 06:25:00,
2013-02-23 01:35:00,42.3,40.7,29.82,ENE,78,2.0,4.0,94,0.00,,,0.04,HomebrewedOnLinux,2013-02-23 06:35:00,
2013-02-23 01:45:00,42.3,40.7,29.85,East,90,1.0,3.0,94,0.00,,,0.04,HomebrewedOnLinux,2013-02-23 06:45:00,
2013-02-23 01:55:00,42.1,40.5,29.85,East,90,1.0,2.0,94,0.00,,,0.04,HomebrewedOnLinux,2013-02-23 06:55:00,
2013-02-23 02:00:00,42.3,40.9,29.82,East,95,2.0,3.0,95,0.00,,,0.04,HomebrewedOnLinux,2013-02-23 07:00:00,
2013-02-23 02:10:00,42.1,40.6,29.82,East,88,0.0,2.0,94,0.00,,,0.04,HomebrewedOnLinux,2013-02-23 07:10:00,
2013-02-23 02:20:00,42.1,40.8,29.79,SE,139,0.0,2.0,95,0.00,,,0.04,HomebrewedOnLinux,2013-02-23 07:20:00,
2013-02-23 02:25:00,42.1,40.8,29.79,ENE,61,2.0,3.0,95,0.00,,,0.04,HomebrewedOnLinux,2013-02-23 07:25:00,
2013-02-23 02:30:00,42.1,40.8,29.79,ESE,106,2.0,3.0,95,0.00,,,0.04,HomebrewedOnLinux,2013-02-23 07:30:00,
2013-02-23 02:35:00,42.1,40.8,29.79,East,89,2.0,3.0,95,0.00,,,0.04,HomebrewedOnLinux,2013-02-23 07:35:00,
2013-02-23 02:45:00,42.1,40.8,29.79,East,83,1.0,3.0,95,0.00,,,0.04,HomebrewedOnLinux,2013-02-23 07:45:00,
2013-02-23 02:55:00,42.1,40.8,29.79,East,100,0.0,2.0,95,0.00,,,0.04,HomebrewedOnLinux,2013-02-23 07:55:00,
2013-02-23 03:00:00,42.1,40.8,29.79,SSE,157,1.0,2.0,95,0.04,,,0.08,HomebrewedOnLinux,2013-02-23 08:00:00,
2013-02-23 03:05:00,42.1,40.8,29.79,NE,43,0.0,2.0,95,0.04,,,0.08,HomebrewedOnLinux,2013-02-23 08:05:00,
2013-02-23 03:10:00,42.1,40.8,29.79,NNE,17,0.0,1.0,95,0.04,,,0.08,HomebrewedOnLinux,2013-02-23 08:10:00,
2013-02-23 03:20:00,42.1,40.8,29.79,East,101,2.0,3.0,95,0.04,,,0.08,HomebrewedOnLinux,2013-02-23 08:20:00,
2013-02-23 03:30:00,42.1,40.8,29.77,ENE,73,0.0,2.0,95,0.08,,,0.12,HomebrewedOnLinux,2013-02-23 08:30:00,
2013-02-23 03:35:00,42.1,40.8,29.77,ENE,71,0.0,0.0,95,0.08,,,0.12,HomebrewedOnLinux,2013-02-23 08:35:00,
2013-02-23 03:40:00,42.1,40.8,29.77,ENE,75,0.0,0.0,95,0.08,,,0.12,HomebrewedOnLinux,2013-02-23 08:40:00,
2013-02-23 03:45:00,42.3,41.1,29.74,ESE,122,0.0,0.0,96,0.08,,,0.12,HomebrewedOnLinux,2013-02-23 08:45:00,
2013-02-23 03:55:00,42.1,40.8,29.74,ENE,76,0.0,0.0,95,0.08,,,0.12,HomebrewedOnLinux,2013-02-23 08:55:00,
2013-02-23 04:05:00,42.3,41.2,29.79,SE,128,0.0,0.0,96,0.04,,,0.12,HomebrewedOnLinux,2013-02-23 09:05:00,
2013-02-23 04:10:00,42.3,41.2,29.79,ENE,77,0.0,0.0,96,0.04,,,0.12,HomebrewedOnLinux,2013-02-23 09:10:00,
2013-02-23 04:15:00,42.1,41.0,29.77,NNW,340,0.0,0.0,96,0.08,,,0.16,HomebrewedOnLinux,2013-02-23 09:15:00,
2013-02-23 04:20:00,41.9,40.8,29.77,ENE,69,0.0,4.0,96,0.08,,,0.16,HomebrewedOnLinux,2013-02-23 09:20:00,
2013-02-23 04:30:00,42.1,41.0,29.77,ENE,59,2.0,3.0,96,0.04,,,0.16,HomebrewedOnLinux,2013-02-23 09:30:00,
2013-02-23 04:40:00,42.1,41.0,29.77,ENE,73,1.0,2.0,96,0.12,,,0.24,HomebrewedOnLinux,2013-02-23 09:40:00,
2013-02-23 04:45:00,42.1,41.0,29.74,ENE,73,1.0,3.0,96,0.12,,,0.24,HomebrewedOnLinux,2013-02-23 09:45:00,
2013-02-23 04:50:00,42.1,41.0,29.74,East,81,1.0,2.0,96,0.12,,,0.24,HomebrewedOnLinux,2013-02-23 09:50:00,
2013-02-23 04:55:00,42.1,41.0,29.74,East,98,1.0,4.0,96,0.12,,,0.24,HomebrewedOnLinux,2013-02-23 09:55:00,
2013-02-23 05:05:00,42.1,41.0,29.77,East,100,1.0,2.0,96,0.17,,,0.29,HomebrewedOnLinux,2013-02-23 10:05:00,
2013-02-23 05:10:00,42.1,41.0,29.77,NE,42,1.0,2.0,96,0.17,,,0.29,HomebrewedOnLinux,2013-02-23 10:10:00,
2013-02-23 05:15:00,41.9,40.8,29.77,ENE,59,1.0,2.0,96,0.17,,,0.33,HomebrewedOnLinux,2013-02-23 10:15:00,
2013-02-23 05:20:00,41.9,40.8,29.77,ENE,74,1.0,2.0,96,0.17,,,0.33,HomebrewedOnLinux,2013-02-23 10:20:00,
2013-02-23 05:30:00,41.7,40.7,29.77,East,83,0.0,0.0,96,0.21,,,0.37,HomebrewedOnLinux,2013-02-23 10:30:00,
2013-02-23 05:40:00,41.9,40.8,29.77,East,98,0.0,0.0,96,0.13,,,0.37,HomebrewedOnLinux,2013-02-23 10:40:00,
2013-02-23 05:50:00,41.7,40.7,29.74,ESE,120,2.0,5.0,96,0.17,,,0.41,HomebrewedOnLinux,2013-02-23 10:50:00,
2013-02-23 05:55:00,41.7,40.7,29.74,ENE,65,1.0,3.0,96,0.17,,,0.41,HomebrewedOnLinux,2013-02-23 10:55:00,
2013-02-23 06:00:00,41.7,40.7,29.74,ENE,58,1.0,3.0,96,0.17,,,0.41,HomebrewedOnLinux,2013-02-23 11:00:00,
2013-02-23 06:05:00,41.7,40.7,29.74,East,82,2.0,4.0,96,0.16,,,0.45,HomebrewedOnLinux,2013-02-23 11:05:00,
2013-02-23 06:15:00,41.7,40.7,29.74,NE,36,1.0,4.0,96,0.12,,,0.45,HomebrewedOnLinux,2013-02-23 11:15:00,
2013-02-23 06:25:00,41.9,40.8,29.74,South,187,1.0,4.0,96,0.12,,,0.45,HomebrewedOnLinux,2013-02-23 11:25:00,
2013-02-23 06:30:00,41.9,40.8,29.74,NW,314,2.0,4.0,96,0.12,,,0.49,HomebrewedOnLinux,2013-02-23 11:30:00,
2013-02-23 06:35:00,41.9,40.8,29.74,ENE,73,2.0,4.0,96,0.17,,,0.54,HomebrewedOnLinux,2013-02-23 11:35:00,
2013-02-23 06:40:00,41.7,40.7,29.74,WSW,239,1.0,3.0,96,0.17,,,0.54,HomebrewedOnLinux,2013-02-23 11:40:00,
2013-02-23 06:50:00,41.7,40.7,29.74,NNE,32,2.0,7.0,96,0.16,,,0.57,HomebrewedOnLinux,2013-02-23 11:50:00,
2013-02-23 06:55:00,41.9,40.8,29.74,SSE,152,3.0,8.0,96,0.16,,,0.57,HomebrewedOnLinux,2013-02-23 11:55:00,
2013-02-23 07:00:00,41.7,40.7,29.77,NE,36,3.0,4.0,96,0.16,,,0.57,HomebrewedOnLinux,2013-02-23 12:00:00,
2013-02-23 07:05:00,41.7,40.8,29.79,East,81,2.0,4.0,96,0.12,,,0.57,HomebrewedOnLinux,2013-02-23 12:05:00,
2013-02-23 07:10:00,41.9,41.1,29.79,NE,55,2.0,3.0,97,0.17,,,0.62,HomebrewedOnLinux,2013-02-23 12:10:00,
2013-02-23 07:15:00,42.1,41.3,29.79,East,87,1.0,3.0,97,0.17,,,0.62,HomebrewedOnLinux,2013-02-23 12:15:00,
2013-02-23 07:25:00,42.3,41.5,29.79,SE,125,0.0,0.0,97,0.17,,,0.62,HomebrewedOnLinux,2013-02-23 12:25:00,
2013-02-23 07:35:00,42.3,41.5,29.77,West,267,0.0,0.0,97,0.08,,,0.62,HomebrewedOnLinux,2013-02-23 12:35:00,
2013-02-23 07:40:00,42.3,41.5,29.77,West,265,0.0,0.0,97,0.08,,,0.62,HomebrewedOnLinux,2013-02-23 12:40:00,
2013-02-23 07:45:00,42.3,41.5,29.77,West,266,0.0,0.0,97,0.08,,,0.62,HomebrewedOnLinux,2013-02-23 12:45:00,
2013-02-23 07:50:00,42.3,41.5,29.77,ENE,68,0.0,0.0,97,0.05,,,0.62,HomebrewedOnLinux,2013-02-23 12:50:00,
2013-02-23 08:00:00,42.3,41.5,29.74,NE,46,0.0,0.0,97,0.05,,,0.62,HomebrewedOnLinux,2013-02-23 13:00:00,
2013-02-23 08:10:00,42.4,41.6,29.74,NNE,31,0.0,0.0,97,0.00,,,0.62,HomebrewedOnLinux,2013-02-23 13:10:00,
2013-02-23 08:15:00,42.6,42.0,29.74,ENE,65,0.0,0.0,98,0.00,,,0.62,HomebrewedOnLinux,2013-02-23 13:15:00,
2013-02-23 08:25:00,42.8,42.0,29.74,NNE,20,0.0,0.0,97,0.00,,,0.62,HomebrewedOnLinux,2013-02-23 13:25:00,
2013-02-23 08:35:00,43.0,42.2,29.74,NNE,25,0.0,0.0,97,0.00,,,0.62,HomebrewedOnLinux,2013-02-23 13:35:00,
2013-02-23 08:40:00,43.3,42.5,29.74,ESE,120,0.0,0.0,97,0.00,,,0.62,HomebrewedOnLinux,2013-02-23 13:40:00,
2013-02-23 08:45:00,43.5,42.7,29.71,ENE,70,0.0,0.0,97,0.00,,,0.62,HomebrewedOnLinux,2013-02-23 13:45:00,
2013-02-23 08:55:00,43.5,42.7,29.71,East,89,0.0,0.0,97,0.00,,,0.62,HomebrewedOnLinux,2013-02-23 13:55:00,
2013-02-23 09:00:00,43.7,42.9,29.74,SSE,158,0.0,0.0,97,0.00,,,0.62,HomebrewedOnLinux,2013-02-23 14:00:00,
2013-02-23 09:10:00,44.1,43.5,29.74,SE,129,0.0,0.0,98,0.00,,,0.62,HomebrewedOnLinux,2013-02-23 14:10:00,
2013-02-23 09:20:00,44.2,43.7,29.71,WSW,255,0.0,0.0,98,0.00,,,0.62,HomebrewedOnLinux,2013-02-23 14:20:00,
2013-02-23 09:25:00,44.2,43.7,29.71,NNW,335,0.0,0.0,98,0.00,,,0.62,HomebrewedOnLinux,2013-02-23 14:25:00,
2013-02-23 09:30:00,44.2,43.7,29.74,NW,318,0.0,0.0,98,0.00,,,0.62,HomebrewedOnLinux,2013-02-23 14:30:00,
2013-02-23 09:35:00,44.2,43.7,29.74,NNW,342,0.0,0.0,98,0.00,,,0.62,HomebrewedOnLinux,2013-02-23 14:35:00,
2013-02-23 09:45:00,44.6,43.9,29.77,SSW,192,0.0,0.0,97,0.00,,,0.62,HomebrewedOnLinux,2013-02-23 14:45:00,
2013-02-23 09:55:00,45.0,44.4,29.77,West,260,0.0,0.0,98,0.00,,,0.62,HomebrewedOnLinux,2013-02-23 14:55:00,
2013-02-23 10:00:00,44.8,44.2,29.74,SSW,196,0.0,0.0,98,0.00,,,0.62,HomebrewedOnLinux,2013-02-23 15:00:00,
2013-02-23 10:05:00,45.0,44.3,29.74,ESE,117,0.0,3.0,98,0.00,,,0.62,HomebrewedOnLinux,2013-02-23 15:05:00,
2013-02-23 10:10:00,44.8,44.0,29.74,ENE,60,1.0,2.0,97,0.00,,,0.62,HomebrewedOnLinux,2013-02-23 15:10:00,
2013-02-23 10:20:00,44.8,44.0,29.74,NE,36,1.0,2.0,97,0.00,,,0.62,HomebrewedOnLinux,2013-02-23 15:20:00,
2013-02-23 10:25:00,44.8,44.0,29.74,North,0,0.0,1.0,97,0.00,,,0.62,HomebrewedOnLinux,2013-02-23 15:25:00,
2013-02-23 10:30:00,45.0,44.2,29.74,West,262,0.0,0.0,97,0.00,,,0.62,HomebrewedOnLinux,2013-02-23 15:30:00,
2013-02-23 10:35:00,45.1,44.3,29.74,SE,124,2.0,4.0,97,0.00,,,0.62,HomebrewedOnLinux,2013-02-23 15:35:00,
2013-02-23 10:40:00,45.1,44.6,29.74,NNE,32,1.0,2.0,98,0.00,,,0.62,HomebrewedOnLinux,2013-02-23 15:40:00,
2013-02-23 10:50:00,45.3,44.5,29.74,East,85,1.0,3.0,97,0.00,,,0.62,HomebrewedOnLinux,2013-02-23 15:50:00,
2013-02-23 10:55:00,45.7,44.9,29.74,ENE,60,0.0,0.0,97,0.00,,,0.62,HomebrewedOnLinux,2013-02-23 15:55:00,
2013-02-23 11:05:00,45.9,45.1,29.71,ENE,68,0.0,0.0,97,0.00,,,0.62,HomebrewedOnLinux,2013-02-23 16:05:00,
2013-02-23 11:10:00,45.9,45.1,29.71,ENE,67,0.0,2.0,97,0.00,,,0.62,HomebrewedOnLinux,2013-02-23 16:10:00,
2013-02-23 11:15:00,45.9,45.1,29.71,NE,41,0.0,3.0,97,0.00,,,0.62,HomebrewedOnLinux,2013-02-23 16:15:00,
2013-02-23 11:25:00,46.0,45.2,29.71,NNW,333,0.0,0.0,97,0.00,,,0.62,HomebrewedOnLinux,2013-02-23 16:25:00,
2013-02-23 11:30:00,46.0,45.2,29.74,NE,39,0.0,0.0,97,0.00,,,0.62,HomebrewedOnLinux,2013-02-23 16:30:00,
2013-02-23 11:40:00,46.0,45.2,29.74,NE,45,0.0,0.0,97,0.00,,,0.62,HomebrewedOnLinux,2013-02-23 16:40:00,
2013-02-23 11:45:00,46.0,45.2,29.74,NNE,18,0.0,0.0,97,0.00,,,0.62,HomebrewedOnLinux,2013-02-23 16:45:00,
2013-02-23 11:50:00,46.0,45.2,29.74,East,94,0.0,0.0,97,0.00,,,0.62,HomebrewedOnLinux,2013-02-23 16:50:00,
2013-02-23 11:55:00,46.2,45.4,29.74,ESE,102,0.0,0.0,97,0.00,,,0.62,HomebrewedOnLinux,2013-02-23 16:55:00,
2013-02-23 12:05:00,46.2,45.4,29.74,ENE,75,0.0,3.0,97,0.00,,,0.62,HomebrewedOnLinux,2013-02-23 17:05:00,
2013-02-23 12:15:00,46.4,45.6,29.74,East,84,0.0,0.0,97,0.00,,,0.62,HomebrewedOnLinux,2013-02-23 17:15:00,
2013-02-23 12:25:00,46.4,45.6,29.74,East,99,1.0,2.0,97,0.00,,,0.62,HomebrewedOnLinux,2013-02-23 17:25:00,
2013-02-23 12:35:00,46.4,45.6,29.74,ENE,64,0.0,2.0,97,0.00,,,0.62,HomebrewedOnLinux,2013-02-23 17:35:00,
2013-02-23 12:40:00,46.4,45.6,29.74,NE,48,1.0,2.0,97,0.00,,,0.62,HomebrewedOnLinux,2013-02-23 17:40:00,
2013-02-23 12:50:00,46.6,45.8,29.74,ENE,66,1.0,2.0,97,0.00,,,0.62,HomebrewedOnLinux,2013-02-23 17:50:00,
2013-02-23 13:00:00,46.6,46.0,29.71,East,92,0.0,1.0,98,0.00,,,0.62,HomebrewedOnLinux,2013-02-23 18:00:00,
2013-02-23 13:05:00,46.6,46.0,29.71,ENE,65,0.0,2.0,98,0.00,,,0.62,HomebrewedOnLinux,2013-02-23 18:05:00,
2013-02-23 13:15:00,46.8,46.2,29.74,ENE,75,0.0,0.0,98,0.00,,,0.62,HomebrewedOnLinux,2013-02-23 18:15:00,
2013-02-23 13:20:00,46.8,46.2,29.74,East,82,0.0,0.0,98,0.00,,,0.62,HomebrewedOnLinux,2013-02-23 18:20:00,
2013-02-23 13:25:00,46.8,46.1,29.74,ENE,60,0.0,0.0,97,0.00,,,0.62,HomebrewedOnLinux,2013-02-23 18:25:00,
2013-02-23 13:30:00,46.8,46.2,29.71,ENE,71,0.0,0.0,98,0.00,,,0.62,HomebrewedOnLinux,2013-02-23 18:30:00,
2013-02-23 13:40:00,46.8,46.2,29.71,NE,46,0.0,0.0,98,0.00,,,0.62,HomebrewedOnLinux,2013-02-23 18:40:00,
2013-02-23 13:50:00,46.8,46.2,29.74,West,259,0.0,0.0,98,0.00,,,0.62,HomebrewedOnLinux,2013-02-23 18:50:00,
2013-02-23 14:00:00,46.8,46.2,29.71,SSW,192,0.0,0.0,98,0.00,,,0.62,HomebrewedOnLinux,2013-02-23 19:00:00,
2013-02-23 14:05:00,46.8,46.2,29.71,South,180,0.0,0.0,98,0.00,,,0.62,HomebrewedOnLinux,2013-02-23 19:05:00,
2013-02-23 14:10:00,46.9,46.4,29.71,SSE,165,0.0,0.0,98,0.00,,,0.62,HomebrewedOnLinux,2013-02-23 19:10:00,
2013-02-23 14:20:00,47.1,46.6,29.68,ENE,57,0.0,0.0,98,0.00,,,0.62,HomebrewedOnLinux,2013-02-23 19:20:00,
2013-02-23 14:25:00,47.1,46.6,29.68,WNW,300,0.0,0.0,98,0.00,,,0.62,HomebrewedOnLinux,2013-02-23 19:25:00,
2013-02-23 14:35:00,47.3,46.8,29.68,East,90,0.0,0.0,98,0.00,,,0.62,HomebrewedOnLinux,2013-02-23 19:35:00,
2013-02-23 14:45:00,47.3,46.8,29.68,ENE,73,0.0,0.0,98,0.00,,,0.62,HomebrewedOnLinux,2013-02-23 19:45:00,
2013-02-23 14:50:00,47.5,46.9,29.68,East,86,0.0,0.0,98,0.00,,,0.62,HomebrewedOnLinux,2013-02-23 19:50:00,
2013-02-23 15:00:00,47.5,46.9,29.68,NNE,27,0.0,0.0,98,0.00,,,0.62,HomebrewedOnLinux,2013-02-23 20:00:00,
2013-02-23 15:10:00,47.5,46.9,29.68,North,2,0.0,0.0,98,0.00,,,0.62,HomebrewedOnLinux,2013-02-23 20:10:00,
2013-02-23 15:20:00,47.5,46.9,29.68,ENE,60,0.0,0.0,98,0.00,,,0.62,HomebrewedOnLinux,2013-02-23 20:20:00,
2013-02-23 15:25:00,47.5,46.9,29.68,NNE,17,0.0,0.0,98,0.00,,,0.62,HomebrewedOnLinux,2013-02-23 20:25:00,
2013-02-23 15:35:00,47.5,46.9,29.68,SE,128,0.0,0.0,98,0.00,,,0.62,HomebrewedOnLinux,2013-02-23 20:35:00,
2013-02-23 15:45:00,47.5,46.9,29.71,NE,45,0.0,0.0,98,0.00,,,0.62,HomebrewedOnLinux,2013-02-23 20:45:00,
2013-02-23 15:50:00,47.7,47.1,29.71,ENE,59,0.0,0.0,98,0.00,,,0.62,HomebrewedOnLinux,2013-02-23 20:50:00,
2013-02-23 15:55:00,47.7,47.1,29.71,NW,315,0.0,0.0,98,0.00,,,0.62,HomebrewedOnLinux,2013-02-23 20:55:00,
2013-02-23 16:00:00,47.7,47.1,29.68,NE,34,0.0,0.0,98,0.00,,,0.62,HomebrewedOnLinux,2013-02-23 21:00:00,
2013-02-23 16:10:00,47.7,47.1,29.68,NE,52,0.0,0.0,98,0.00,,,0.62,HomebrewedOnLinux,2013-02-23 21:10:00,
2013-02-23 16:20:00,47.7,47.1,29.68,East,88,1.0,3.0,98,0.00,,,0.62,HomebrewedOnLinux,2013-02-23 21:20:00,
2013-02-23 16:30:00,47.7,47.1,29.68,NE,52,0.0,2.0,98,0.00,,,0.62,HomebrewedOnLinux,2013-02-23 21:30:00,
2013-02-23 16:35:00,47.7,47.1,29.68,SW,218,0.0,0.0,98,0.00,,,0.62,HomebrewedOnLinux,2013-02-23 21:35:00,
2013-02-23 16:45:00,47.7,47.1,29.68,East,100,0.0,0.0,98,0.00,,,0.62,HomebrewedOnLinux,2013-02-23 21:45:00,
2013-02-23 16:55:00,47.7,47.1,29.68,ENE,57,0.0,0.0,98,0.00,,,0.62,HomebrewedOnLinux,2013-02-23 21:55:00,
2013-02-23 17:00:00,47.7,47.1,29.65,NNE,32,0.0,0.0,98,0.00,,,0.62,HomebrewedOnLinux,2013-02-23 22:00:00,
2013-02-23 17:05:00,47.5,46.9,29.65,NE,49,0.0,0.0,98,0.00,,,0.62,HomebrewedOnLinux,2013-02-23 22:05:00,
2013-02-23 17:10:00,47.5,46.9,29.65,NNW,339,0.0,0.0,98,0.00,,,0.62,HomebrewedOnLinux,2013-02-23 22:10:00,
2013-02-23 17:20:00,47.5,46.9,29.68,NNE,22,0.0,0.0,98,0.00,,,0.62,HomebrewedOnLinux,2013-02-23 22:20:00,
2013-02-23 17:30:00,47.5,46.9,29.65,NW,315,0.0,0.0,98,0.00,,,0.62,HomebrewedOnLinux,2013-02-23 22:30:00,
2013-02-23 17:35:00,47.5,46.9,29.65,NW,315,0.0,0.0,98,0.00,,,0.62,HomebrewedOnLinux,2013-02-23 22:35:00,
2013-02-23 17:40:00,47.3,46.8,29.65,North,5,0.0,0.0,98,0.00,,,0.62,HomebrewedOnLinux,2013-02-23 22:40:00,
2013-02-23 17:45:00,47.3,46.8,29.65,NNE,22,0.0,0.0,98,0.00,,,0.62,HomebrewedOnLinux,2013-02-23 22:45:00,
2013-02-23 17:55:00,47.3,46.8,29.65,NNE,26,0.0,1.0,98,0.00,,,0.62,HomebrewedOnLinux,2013-02-23 22:55:00,
2013-02-23 18:05:00,47.3,46.8,29.65,East,95,2.0,4.0,98,0.00,,,0.62,HomebrewedOnLinux,2013-02-23 23:05:00,
2013-02-23 18:15:00,47.3,46.8,29.68,NE,38,0.0,2.0,98,0.00,,,0.62,HomebrewedOnLinux,2013-02-23 23:15:00,
2013-02-23 18:20:00,47.3,46.8,29.68,ENE,63,0.0,0.0,98,0.00,,,0.62,HomebrewedOnLinux,2013-02-23 23:20:00,
2013-02-23 18:30:00,47.3,46.8,29.65,NE,42,0.0,0.0,98,0.00,,,0.62,HomebrewedOnLinux,2013-02-23 23:30:00,
2013-02-23 18:40:00,47.3,46.8,29.65,ENE,62,0.0,0.0,98,0.00,,,0.62,HomebrewedOnLinux,2013-02-23 23:40:00,
2013-02-23 18:45:00,47.3,46.8,29.68,ENE,78,0.0,0.0,98,0.00,,,0.62,HomebrewedOnLinux,2013-02-23 23:45:00,
2013-02-23 18:50:00,47.3,46.8,29.68,ENE,77,0.0,0.0,98,0.00,,,0.62,HomebrewedOnLinux,2013-02-23 23:50:00,
2013-02-23 18:55:00,47.3,46.8,29.68,NE,39,0.0,0.0,98,0.00,,,0.62,HomebrewedOnLinux,2013-02-23 23:55:00,
2013-02-23 19:05:00,47.3,46.8,29.68,NNE,19,0.0,0.0,98,0.00,,,0.62,HomebrewedOnLinux,2013-02-24 00:05:00,
2013-02-23 19:15:00,47.3,46.8,29.68,West,266,0.0,0.0,98,0.00,,,0.62,HomebrewedOnLinux,2013-02-24 00:15:00,
2013-02-23 19:20:00,47.3,46.8,29.68,South,180,0.0,0.0,98,0.00,,,0.62,HomebrewedOnLinux,2013-02-24 00:20:00,
2013-02-23 19:25:00,47.3,46.8,29.68,WNW,292,0.0,0.0,98,0.00,,,0.62,HomebrewedOnLinux,2013-02-24 00:25:00,
2013-02-23 19:30:00,47.3,46.8,29.68,SW,232,0.0,0.0,98,0.00,,,0.62,HomebrewedOnLinux,2013-02-24 00:30:00,
2013-02-23 19:35:00,47.3,46.8,29.68,NE,39,1.0,5.0,98,0.00,,,0.62,HomebrewedOnLinux,2013-02-24 00:35:00,
2013-02-23 19:40:00,47.3,46.8,29.68,NW,311,0.0,2.0,98,0.00,,,0.62,HomebrewedOnLinux,2013-02-24 00:40:00,
2013-02-23 19:50:00,47.3,46.8,29.71,North,353,0.0,0.0,98,0.00,,,0.62,HomebrewedOnLinux,2013-02-24 00:50:00,
2013-02-23 19:55:00,47.3,46.8,29.71,WNW,302,0.0,0.0,98,0.00,,,0.62,HomebrewedOnLinux,2013-02-24 00:55:00,
2013-02-23 20:00:00,47.3,46.8,29.71,NNW,332,0.0,0.0,98,0.00,,,0.62,HomebrewedOnLinux,2013-02-24 01:00:00,
2013-02-23 20:05:00,47.3,46.8,29.71,NNE,13,0.0,0.0,98,0.00,,,0.62,HomebrewedOnLinux,2013-02-24 01:05:00,
2013-02-23 20:15:00,47.3,46.8,29.74,NNW,333,0.0,0.0,98,0.00,,,0.62,HomebrewedOnLinux,2013-02-24 01:15:00,
2013-02-23 20:25:00,47.3,46.8,29.74,NNE,21,0.0,0.0,98,0.00,,,0.62,HomebrewedOnLinux,2013-02-24 01:25:00,
2013-02-23 20:30:00,47.3,46.8,29.74,NW,323,0.0,0.0,98,0.00,,,0.62,HomebrewedOnLinux,2013-02-24 01:30:00,
2013-02-23 20:35:00,47.3,46.8,29.74,WNW,293,0.0,0.0,98,0.00,,,0.62,HomebrewedOnLinux,2013-02-24 01:35:00,
2013-02-23 20:40:00,47.5,46.9,29.74,West,259,0.0,0.0,98,0.00,,,0.62,HomebrewedOnLinux,2013-02-24 01:40:00,
2013-02-23 20:50:00,47.5,46.9,29.68,SW,224,0.0,0.0,98,0.00,,,0.62,HomebrewedOnLinux,2013-02-24 01:50:00,
2013-02-23 21:00:00,47.3,46.8,29.65,NW,307,0.0,0.0,98,0.00,,,0.62,HomebrewedOnLinux,2013-02-24 02:00:00,
2013-02-23 21:05:00,47.3,46.8,29.65,SW,217,0.0,0.0,98,0.00,,,0.62,HomebrewedOnLinux,2013-02-24 02:05:00,
2013-02-23 21:15:00,47.5,46.9,29.68,NNW,338,0.0,0.0,98,0.00,,,0.62,HomebrewedOnLinux,2013-02-24 02:15:00,
2013-02-23 21:25:00,47.5,46.9,29.68,West,263,0.0,0.0,98,0.00,,,0.62,HomebrewedOnLinux,2013-02-24 02:25:00,
2013-02-23 21:30:00,47.3,46.8,29.68,NW,313,0.0,0.0,98,0.00,,,0.62,HomebrewedOnLinux,2013-02-24 02:30:00,
2013-02-23 21:35:00,47.5,46.9,29.68,NNW,333,0.0,0.0,98,0.00,,,0.62,HomebrewedOnLinux,2013-02-24 02:35:00,
2013-02-23 21:40:00,47.5,46.9,29.68,North,8,0.0,0.0,98,0.00,,,0.62,HomebrewedOnLinux,2013-02-24 02:40:00,
2013-02-23 21:45:00,47.5,46.9,29.65,NW,309,0.0,0.0,98,0.00,,,0.62,HomebrewedOnLinux,2013-02-24 02:45:00,
2013-02-23 21:50:00,47.5,46.9,29.65,NNE,22,0.0,0.0,98,0.00,,,0.62,HomebrewedOnLinux,2013-02-24 02:50:00,
2013-02-23 22:00:00,47.5,46.9,29.65,NNE,22,0.0,0.0,98,0.00,,,0.62,HomebrewedOnLinux,2013-02-24 03:00:00,
2013-02-23 22:10:00,47.5,46.9,29.65,NNE,22,0.0,0.0,98,0.00,,,0.62,HomebrewedOnLinux,2013-02-24 03:10:00,
2013-02-23 22:15:00,47.5,46.9,29.65,NNE,22,0.0,0.0,98,0.00,,,0.62,HomebrewedOnLinux,2013-02-24 03:15:00,
2013-02-23 22:20:00,47.5,46.9,29.65,NNE,22,0.0,0.0,98,0.00,,,0.62,HomebrewedOnLinux,2013-02-24 03:20:00,
2013-02-23 22:25:00,47.5,46.9,29.65,NNE,22,0.0,0.0,98,0.00,,,0.62,HomebrewedOnLinux,2013-02-24 03:25:00,
2013-02-23 22:35:00,47.5,46.9,29.65,NE,44,0.0,0.0,98,0.00,,,0.62,HomebrewedOnLinux,2013-02-24 03:35:00,
2013-02-23 22:45:00,47.7,47.1,29.68,NE,36,0.0,0.0,98,0.00,,,0.62,HomebrewedOnLinux,2013-02-24 03:45:00,
2013-02-23 22:50:00,47.7,47.1,29.68,NE,46,0.0,0.0,98,0.00,,,0.62,HomebrewedOnLinux,2013-02-24 03:50:00,
2013-02-23 22:55:00,47.7,47.1,29.68,ENE,62,0.0,0.0,98,0.00,,,0.62,HomebrewedOnLinux,2013-02-24 03:55:00,
2013-02-23 23:00:00,47.7,47.1,29.65,ENE,59,0.0,0.0,98,0.00,,,0.62,HomebrewedOnLinux,2013-02-24 04:00:00,
2013-02-23 23:10:00,47.5,46.9,29.65,NE,49,0.0,0.0,98,0.00,,,0.62,HomebrewedOnLinux,2013-02-24 04:10:00,
2013-02-23 23:15:00,47.5,46.9,29.68,NNE,14,0.0,0.0,98,0.00,,,0.62,HomebrewedOnLinux,2013-02-24 04:15:00,
2013-02-23 23:20:00,47.5,46.9,29.68,NE,39,0.0,0.0,98,0.00,,,0.62,HomebrewedOnLinux,2013-02-24 04:20:00,
2013-02-23 23:25:00,47.5,46.9,29.68,NE,52,0.0,0.0,98,0.00,,,0.62,HomebrewedOnLinux,2013-02-24 04:25:00,
2013-02-23 23:30:00,47.5,46.9,29.68,NE,47,0.0,0.0,98,0.00,,,0.62,HomebrewedOnLinux,2013-02-24 04:30:00,
2013-02-23 23:40:00,47.5,46.9,29.68,NNE,12,0.0,0.0,98,0.00,,,0.62,HomebrewedOnLinux,2013-02-24 04:40:00,
2013-02-23 23:45:00,47.5,46.9,29.68,NNE,21,0.0,0.0,98,0.00,,,0.62,HomebrewedOnLinux,2013-02-24 04:45:00,
2013-02-23 23:55:00,47.5,46.9,29.68,NNE,27,0.0,0.0,98,0.00,,,0.62,HomebrewedOnLinux,2013-02-24 04:55:00,